This is the latest recevied weather packets stored in our database for station/object SP9MUF-14. If no packets are shown the sender has not sent any weather packets the latest 10 day(s).
| Time | Temp. | Humidity | Pressure | Rain* | Wind** | Luminosity | Snow |
|---|---|---|---|---|---|---|---|
| 1777974318 | 26.67° C | 21% | 1008.6 hPa | 0 mm | - | 506 W/m² | - |
| 1777974014 | 25.56° C | 21% | 1008.8 hPa | 0 mm | - | 494 W/m² | - |
| 1777973710 | 25° C | 23% | 1009 hPa | 0 mm | - | 589 W/m² | - |
| 1777973406 | 25° C | 23% | 1009.1 hPa | 0 mm | - | 493 W/m² | - |
| 1777973102 | 25° C | 22% | 1009 hPa | 0 mm | - | 481 W/m² | - |
| 1777972808 | 25.56° C | 21% | 1009 hPa | 0 mm | - | 612 W/m² | - |
| 1777972193 | 25.56° C | 20% | 1009.2 hPa | 0 mm | - | 602 W/m² | - |
| 1777971889 | 25.56° C | 20% | 1009.2 hPa | 0 mm | - | 719 W/m² | - |
| 1777971281 | 25.56° C | 20% | 1009.3 hPa | 0 mm | - | 641 W/m² | - |
| 1777970981 | 25° C | 24% | 1009.3 hPa | 0 mm | - | 667 W/m² | - |
| 1777970677 | 25° C | 24% | 1009.3 hPa | 0 mm | - | 609 W/m² | - |
| 1777968545 | 23.89° C | 26% | 1009.8 hPa | 0 mm | - | 519 W/m² | - |
| 1777965201 | 20.56° C | 39% | 1010.7 hPa | 0 mm | - | 388 W/m² | - |
| 1777964897 | 20° C | 40% | 1010.8 hPa | 0 mm | - | 366 W/m² | - |
| 1777959731 | 12.78° C | 60% | 1012 hPa | 0 mm | - | 38 W/m² | - |
| 1777958507 | 10.56° C | 68% | 1012.4 hPa | 0 mm | - | 35 W/m² | - |
| 1777958203 | 10° C | 71% | 1012.4 hPa | 0 mm | - | 34 W/m² | - |
| 1777957899 | 10° C | 71% | 1012.4 hPa | 0 mm | - | 33 W/m² | - |
| 1777957595 | 8.89° C | 73% | 1012.4 hPa | 0 mm | - | 32 W/m² | - |
| 1777957292 | 8.89° C | 75% | 1012.4 hPa | 0 mm | - | 31 W/m² | - |
| 1777956987 | 8.89° C | 76% | 1012.5 hPa | 0 mm | - | 29 W/m² | - |
| 1777956683 | 7.78° C | 77% | 1012.5 hPa | 0 mm | - | 28 W/m² | - |
| 1777956379 | 7.78° C | 78% | 1012.4 hPa | 0 mm | - | 27 W/m² | - |
| 1777956075 | 7.78° C | 79% | 1012.5 hPa | 0 mm | - | 26 W/m² | - |
| 1777955771 | 7.78° C | 79% | 1012.4 hPa | 0 mm | - | 25 W/m² | - |
* Rain latest hour (hover to see other rain measurements)
** Current wind speed in m/s (hover to see current wind gust speed)